[[{"header":{"parameterUnit":"m.s-1","parameterCategory":1,"la1":30.2991,"la2":30.254,"lo1":-89.0895,"lo2":-89.0444,"dy":0.0017,"dx":0.0017,"nx":28,"ny":28,"refTime":"2025-04-22T09:00:00:Z","depth":0,"parameterNumber":2,"parameterNumberName":"U-component_of_WINDS"},"data":[0,0,0,0,0,0,0,0,0,0,0,0,0,0,0,0,0,0,0,0,0,0,0,0,0,0,0,0,0,0,0,0,0,0,0,0,0,0,0,0,0,0,0,0,0,0,0,0,0,0,0,0,0,0,0,0,0,0,-1.6898,-1.69,0,-1.7109,-1.7112,-1.7114,-1.7199,-1.7199,-1.7198,-1.7198,-1.7415,-1.7421,-1.7427,0,0,0,0,0,0,0,0,0,0,0,0,0,-1.6569,-1.6574,-1.6897,-1.69,-1.6903,-1.7109,-1.7112,-1.7115,-1.7199,-1.7199,-1.7198,-1.7197,-1.7413,-1.742,-1.7428,0,0,0,0,0,0,0,0,0,0,0,0,0,-1.6739,-1.6576,-1.6897,-1.697,-1.6978,-1.7108,-1.7112,-1.7115,-1.7199,-1.7199,-1.7198,-1.7197,-1.741,-1.7419,-1.7429,-1.7502,0,0,-1.7457,-1.7461,0,0,0,0,0,0,0,0,-1.6729,-1.6751,-1.6956,-1.6965,-1.6975,-1.7127,-1.7076,-1.7245,-1.72,-1.7115,-1.7198,-1.7197,-1.732,-1.7336,-1.7378,-1.7512,-1.7521,-1.7458,-1.7464,-1.7468,-1.747,0,0,0,0,0,0,0,-1.6717,-1.6742,-1.6981,-1.6959,-1.6971,-1.6993,-1.7016,-1.7108,-1.7219,-1.7123,-1.7129,-1.7153,-1.7325,-1.7369,-1.7384,-1.7524,-1.7458,-1.7466,-1.7472,-1.7476,-1.7732,-1.7733,0,0,0,0,0,0,-1.6693,-1.6732,-1.6974,-1.6988,-1.6848,-1.6999,-1.7025,-1.7079,-1.7218,-1.7239,-1.7154,-1.7156,-1.7353,-1.7373,-1.7391,-1.7488,-1.7468,-1.7477,-1.7482,-1.7731,-1.7733,-1.7734,0,0,0,0,0,0,-1.6686,-1.6714,-1.6966,-1.6862,-1.6895,-1.7006,-1.7065,-1.7083,-1.7128,-1.7242,-1.7262,-1.7178,-1.7353,-1.7378,-1.7474,-1.7497,-1.7481,-1.7489,-1.773,-1.7732,-1.7733,-1.768,0,0,0,0,0,0,-1.6676,-1.6711,-1.6739,-1.6862,-1.6901,-1.7044,-1.7067,-1.7088,-1.7144,-1.7149,-1.727,-1.729,-1.7354,-1.746,-1.7484,-1.7509,-1.7497,-1.7728,-1.7731,-1.7733,-1.768,-1.7679,-1.7679,0,0,0,0,0,-1.6664,-1.6715,-1.674,-1.6769,-1.6938,-1.7045,-1.7068,-1.7141,-1.7145,-1.7175,-1.7249,-1.7286,-1.749,-1.7469,-1.7497,-1.7525,-1.7727,-1.773,-1.7732,-1.768,-1.768,-1.7679,0,0,0,0,0,0,-1.6591,-1.6732,-1.6761,-1.6854,-1.6937,-1.7059,-1.7099,-1.7138,-1.7222,-1.7223,-1.7312,-1.7338,-1.7427,-1.7486,-1.746,-1.7605,-1.7612,-1.762,-1.7563,-1.7563,-1.7562,-1.7546,-1.7504,0,0,0,0,0,-1.6586,-1.6661,-1.678,-1.685,-1.6891,-1.6987,-1.7037,-1.7087,-1.7176,-1.7212,-1.7293,-1.7379,-1.7463,-1.7517,-1.76,-1.769,-1.7718,-1.7723,-1.7722,-1.7722,-1.7727,-1.7781,-1.7785,-1.7743,-1.7743,-1.7743,0,0,-1.6576,-1.6662,-1.6704,-1.6838,-1.6908,-1.6985,-1.7016,-1.7095,-1.7153,-1.7224,-1.732,-1.7383,-1.7485,-1.7578,-1.7623,-1.763,-1.7746,-1.7725,-1.7723,-1.773,-1.7784,-1.7788,-1.7792,-1.7744,-1.7744,-1.7744,0,0,-1.6597,-1.6669,-1.6736,-1.6806,-1.6913,-1.6977,-1.6993,-1.7111,-1.7155,-1.7253,-1.7309,-1.7379,-1.7522,-1.7593,-1.7648,-1.7698,-1.7736,-1.7723,-1.772,-1.7771,-1.7775,-1.7778,-1.7797,-1.7803,-1.7729,-1.7729,-1.7729,0,-1.657,-1.6687,-1.6765,-1.6842,-1.69,-1.6969,-1.7038,-1.7103,-1.7231,-1.727,-1.7275,-1.7457,-1.7531,-1.7643,-1.7655,-1.7697,-1.7719,-1.7709,-1.7768,-1.7772,-1.7777,-1.7796,-1.7802,-1.7726,-1.7727,-1.7727,-1.7727,0,-1.665,-1.6731,-1.6772,-1.6895,-1.6958,-1.703,-1.712,-1.7175,-1.722,-1.7284,-1.7384,-1.7475,-1.7579,-1.761,-1.7654,-1.7729,-1.773,-1.7751,-1.7759,-1.7777,-1.7796,-1.7804,-1.7723,-1.7724,-1.7725,-1.7725,0,0,-1.6629,-1.6796,-1.681,-1.6867,-1.6991,-1.7055,-1.7132,-1.7234,-1.7279,-1.7366,-1.7434,-1.7554,-1.7575,-1.7637,-1.769,-1.7735,-1.7771,-1.7751,-1.7755,-1.7752,-1.7861,-1.7844,-1.7851,-1.7798,-1.7799,-1.7801,-1.7852,0,-1.6666,-1.6806,-1.688,-1.6988,-1.7064,-1.7132,-1.7199,-1.7283,-1.7346,-1.742,-1.749,-1.7575,-1.7595,-1.7633,-1.7681,-1.7756,-1.7794,-1.7754,-1.7861,-1.7864,-1.7833,-1.7861,-1.7844,-1.7888,-1.786,-1.7862,-1.7863,0,-1.6728,-1.6815,-1.693,-1.7047,-1.7082,-1.7141,-1.7242,-1.7312,-1.7409,-1.7452,-1.7523,-1.7576,-1.7661,-1.7664,-1.7783,-1.7754,-1.7803,-1.7847,-1.7851,-1.7863,-1.7864,-1.7874,-1.7904,-1.791,-1.7875,-1.7874,-1.7873,0,-1.6701,-1.6847,-1.6936,-1.6983,-1.7121,-1.7161,-1.7221,-1.7318,-1.7375,-1.7464,-1.7503,-1.76,-1.7653,-1.7727,-1.7806,-1.7801,-1.7918,-1.7927,-1.7956,-1.7954,-1.7977,-1.7974,-1.8014,-1.8009,-1.8008,-1.8008,-1.8008,0,-1.6735,-1.6803,-1.6926,-1.698,-1.706,-1.7145,-1.7222,-1.7287,-1.7373,-1.7442,-1.7507,-1.7571,-1.7671,-1.7748,-1.7811,-1.79,-1.7924,-1.7961,-1.7977,-1.7956,-1.7951,-1.7988,-1.7987,-1.801,-1.801,-1.8009,-1.8009,0,-1.6718,-1.6803,-1.6904,-1.7028,-1.7061,-1.7114,-1.722,-1.7277,-1.7344,-1.7431,-1.7456,-1.7562,-1.7656,-1.7742,-1.7867,-1.7909,-1.8,-1.802,-1.7967,-1.7975,-1.8,-1.7996,-1.8065,-1.8079,-1.8063,-1.8063,-1.8063,0,-1.6734,-1.6788,-1.6918,-1.6969,-1.7028,-1.7109,-1.7169,-1.7256,-1.7315,-1.7431,-1.7474,-1.7573,-1.7657,-1.7804,-1.7892,-1.7989,-1.8012,-1.8029,-1.8026,-1.8004,-1.8013,-1.8008,-1.8015,-1.8028,-1.8027,-1.8027,-1.8027,0,-1.6753,-1.6793,-1.6876,-1.6974,-1.7043,-1.7124,-1.7208,-1.7246,-1.735,-1.7413,-1.751,-1.7575,-1.7704,-1.7802,-1.7909,-1.7972,-1.8017,-1.8028,-1.804,-1.8018,-1.7985,-1.8003,-1.7964,-1.8025,-1.8025,-1.8025,-1.8026,-1.8026,-1.6754,-1.6806,-1.6906,-1.6996,-1.7069,-1.7146,-1.7205,-1.728,-1.7363,-1.7474,-1.7521,-1.762,-1.7719,-1.7867,-1.793,-1.8009,-1.8018,-1.8035,-1.804,-1.8043,-1.8039,-1.7972,-1.8029,-1.8029,-1.8029,-1.803,-1.803,0,-1.6777,-1.6845,-1.6927,-1.7043,-1.7114,-1.7151,-1.7247,-1.7304,-1.739,-1.7478,-1.756,-1.7673,-1.7768,-1.7865,-1.7967,-1.8012,-1.8035,-1.8035,-1.8033,-1.8047,-1.8024,-1.8004,-1.8015,-1.8015,-1.8015,-1.8015,-1.8015,-1.8015,-1.6797,-1.6887,-1.6939,-1.7067,-1.7136,-1.7233,-1.7284,-1.7356,-1.7427,-1.755,-1.763,-1.7692,-1.7785,-1.7894,-1.7984,-1.8011,-1.8045,-1.8039,-1.8071,-1.8048,-1.8048,-1.8049,-1.803,-1.8046,-1.8046,-1.8087,-1.8088,-1.8088]},{"header":{"parameterUnit":"m.s-1","parameterCategory":1,"la1":30.2991,"la2":30.254,"lo1":-89.0895,"lo2":-89.0444,"dy":0.0017,"dx":0.0017,"nx":28,"ny":28,"refTime":"2025-04-22T09:00:00:Z","depth":0,"parameterNumber":3,"parameterNumberName":"V-component_of_WINDS"},"data":[0,0,0,0,0,0,0,0,0,0,0,0,0,0,0,0,0,0,0,0,0,0,0,0,0,0,0,0,0,0,0,0,0,0,0,0,0,0,0,0,0,0,0,0,0,0,0,0,0,0,0,0,0,0,0,0,0,0,1.1461,1.1461,0,1.1514,1.1514,1.1515,1.1557,1.1558,1.1558,1.1558,1.1614,1.1615,1.1616,0,0,0,0,0,0,0,0,0,0,0,0,0,1.1398,1.1399,1.1461,1.1461,1.1462,1.1514,1.1515,1.1515,1.1557,1.1558,1.1558,1.1559,1.1614,1.1615,1.1616,0,0,0,0,0,0,0,0,0,0,0,0,0,1.1435,1.1399,1.1461,1.1489,1.1492,1.1514,1.1515,1.1515,1.1557,1.1558,1.1558,1.1559,1.1613,1.1615,1.1617,1.1614,0,0,1.1622,1.1622,0,0,0,0,0,0,0,0,1.1433,1.1438,1.1484,1.1487,1.1491,1.153,1.1513,1.1549,1.1557,1.1532,1.1558,1.1559,1.1586,1.159,1.1598,1.1617,1.1619,1.1622,1.1623,1.1623,1.1624,0,0,0,0,0,0,0,1.143,1.1436,1.1482,1.1485,1.1489,1.15,1.1506,1.152,1.1555,1.1535,1.1538,1.1543,1.1587,1.1596,1.16,1.162,1.1622,1.1623,1.1624,1.1625,1.1641,1.1641,0,0,0,0,0,0,1.1423,1.1433,1.148,1.1483,1.1463,1.1501,1.1507,1.1516,1.1555,1.1561,1.1543,1.1545,1.1593,1.1598,1.1602,1.1602,1.1623,1.1625,1.1626,1.1642,1.1641,1.164,0,0,0,0,0,0,1.1422,1.1427,1.1478,1.1459,1.1466,1.1501,1.1511,1.1517,1.1526,1.1561,1.1568,1.1545,1.1594,1.16,1.1611,1.1605,1.1626,1.1627,1.1642,1.1641,1.1641,1.1603,0,0,0,0,0,0,1.142,1.1426,1.1425,1.1459,1.1467,1.1485,1.1511,1.1518,1.1529,1.1532,1.1565,1.1571,1.1595,1.1608,1.1613,1.1608,1.1629,1.1643,1.1642,1.1641,1.1605,1.1601,1.1597,0,0,0,0,0,1.1417,1.1412,1.1425,1.143,1.1467,1.1485,1.149,1.1517,1.1528,1.1528,1.155,1.157,1.1605,1.1609,1.1614,1.161,1.1644,1.1642,1.1641,1.1606,1.1602,1.1598,0,0,0,0,0,0,1.1378,1.1417,1.1431,1.1437,1.1457,1.1492,1.1492,1.1511,1.1528,1.1531,1.1564,1.1571,1.1579,1.1596,1.16,1.161,1.1627,1.1627,1.1599,1.1595,1.1591,1.1587,1.163,0,0,0,0,0,1.1369,1.138,1.1415,1.1417,1.1426,1.1457,1.1466,1.1485,1.1508,1.1517,1.154,1.1561,1.1577,1.1587,1.1603,1.1608,1.1616,1.1607,1.1603,1.16,1.1599,1.1604,1.16,1.1636,1.1636,1.1636,0,0,1.1353,1.1376,1.1381,1.1409,1.1427,1.1439,1.1464,1.1475,1.1484,1.1518,1.1531,1.1549,1.1575,1.1583,1.1587,1.1597,1.1592,1.1599,1.1596,1.1597,1.1602,1.1599,1.1596,1.1635,1.1636,1.1636,0,0,1.1328,1.1347,1.135,1.1368,1.1394,1.1415,1.1416,1.1448,1.1461,1.1474,1.15,1.1512,1.1538,1.1556,1.1569,1.1552,1.1571,1.1556,1.1537,1.1541,1.1538,1.1535,1.153,1.1527,1.1555,1.1555,1.1555,0,1.1304,1.1322,1.135,1.136,1.1372,1.1403,1.1408,1.1423,1.1454,1.1462,1.1472,1.1506,1.1526,1.1539,1.1535,1.1544,1.1547,1.1552,1.1536,1.1534,1.1532,1.1527,1.1525,1.1553,1.1554,1.1554,1.1554,0,1.1291,1.1303,1.1303,1.1332,1.1344,1.1351,1.1381,1.139,1.1408,1.1428,1.1442,1.1467,1.1489,1.1493,1.1511,1.1509,1.1514,1.1529,1.1547,1.1526,1.1522,1.152,1.1551,1.1551,1.1552,1.1552,0,0,1.1243,1.1287,1.1287,1.13,1.1332,1.1342,1.1351,1.1373,1.138,1.1401,1.1409,1.1431,1.1446,1.146,1.148,1.1483,1.1469,1.1499,1.15,1.1493,1.1469,1.1457,1.1455,1.1482,1.1482,1.1482,1.1467,0,1.1224,1.124,1.1266,1.1275,1.1287,1.1317,1.1325,1.1346,1.1365,1.1378,1.14,1.1415,1.1433,1.1442,1.1447,1.147,1.1465,1.1471,1.1491,1.1492,1.1484,1.1452,1.144,1.1425,1.1466,1.1465,1.1465,0,1.1203,1.1222,1.1231,1.1262,1.1268,1.1275,1.1297,1.1309,1.1334,1.1348,1.1364,1.1386,1.1398,1.1414,1.1431,1.1434,1.1444,1.1457,1.1457,1.146,1.1477,1.1455,1.142,1.1418,1.1463,1.1463,1.1463,0,1.1167,1.1194,1.1204,1.1214,1.1251,1.1255,1.1271,1.1296,1.1308,1.1327,1.1335,1.1356,1.1368,1.1384,1.1411,1.142,1.1426,1.1444,1.1438,1.1437,1.1438,1.1437,1.1405,1.1444,1.1444,1.1444,1.1444,0,1.1143,1.1148,1.1188,1.1193,1.12,1.1231,1.1236,1.1255,1.1277,1.1288,1.1316,1.1325,1.1361,1.1375,1.1397,1.1408,1.1413,1.1425,1.1431,1.1423,1.1421,1.143,1.1431,1.1443,1.1444,1.1444,1.1444,0,1.1104,1.1131,1.1143,1.1177,1.1186,1.1189,1.1219,1.1226,1.1247,1.126,1.1265,1.1298,1.1316,1.1345,1.1372,1.1387,1.1394,1.1403,1.1385,1.1389,1.1382,1.1382,1.1353,1.1351,1.1391,1.1391,1.139,0,1.1086,1.1091,1.1125,1.1134,1.1148,1.1162,1.1174,1.1205,1.1216,1.1245,1.1249,1.1269,1.1286,1.1314,1.1341,1.1361,1.1372,1.136,1.1375,1.1367,1.1372,1.1372,1.1372,1.1357,1.1356,1.1356,1.1355,0,1.1053,1.1066,1.1082,1.1102,1.1116,1.1133,1.1153,1.1158,1.1193,1.1205,1.1223,1.1237,1.1264,1.1284,1.1308,1.1326,1.1347,1.1351,1.1351,1.1342,1.1332,1.1338,1.1376,1.1351,1.1352,1.1352,1.1352,1.1352,1.1025,1.103,1.1055,1.1072,1.1089,1.1107,1.1115,1.1138,1.1153,1.1177,1.1195,1.1212,1.1238,1.1273,1.1289,1.1304,1.1313,1.1313,1.1313,1.1312,1.1309,1.1329,1.1308,1.1308,1.1309,1.1309,1.1309,0,1.0993,1.1011,1.1026,1.1052,1.1065,1.1083,1.1105,1.1116,1.113,1.1152,1.1169,1.119,1.121,1.1239,1.1261,1.1267,1.1277,1.1272,1.1272,1.1275,1.1299,1.1297,1.1263,1.1263,1.1263,1.1263,1.1263,1.1263,1.0978,1.0988,1.1005,1.1024,1.1042,1.1059,1.107,1.1087,1.1105,1.1127,1.1143,1.1162,1.1187,1.1211,1.123,1.1238,1.1245,1.1236,1.1247,1.1269,1.1274,1.1278,1.1276,1.1238,1.1237,1.1222,1.1222,1.1222]}]]